EW7067 Weather Reports


Display with metric or nautical units.
time (UTC)temp
F
wind
direction
speed
MPH
gust
MPH
rain 1hr
in
rain 24hr
in
rain mn
in
humidity
%
barometer
mb
20260504160230 70 329 4.0 10.0 0.00 0.00 0.00 51 971.9
20260504150721 69 340 4.0 10.0 0.00 0.00 0.00 49 972.9
20260504150214 68 294 3.0 8.0 0.00 0.00 0.00 51 972.9
20260504141209 64 325 4.0 10.0 0.00 0.00 0.00 53 972.7
20260504140710 64 292 2.0 9.0 0.00 0.00 0.00 56 972.7
20260504140209 63 207 1.0 5.0 0.00 0.00 0.00 61 972.6
20260504130659 53 337 0.0 0.0 0.00 0.00 0.00 83 972.4
20260504130159 52 338 0.0 0.0 0.00 0.00 0.00 85 972.3
20260504120151 40 208 0.0 0.0 0.00 0.00 0.00 92 972.4
20260504110646 36 208 0.0 0.0 0.00 0.00 0.00 93 972.1
20260504110144 36 208 0.0 0.0 0.00 0.00 0.00 93 972.0
20260504081921 38 208 0.0 0.0 0.00 0.00 0.00 93 972.0
20260504081415 38 208 0.0 0.0 0.00 0.00 0.00 93 972.0
20260504080910 38 208 0.0 0.0 0.00 0.00 0.00 93 972.0
20260504070252 40 208 0.0 0.0 0.00 0.00 0.00 93 972.0
20260504060141 41 208 0.0 0.0 0.00 0.00 0.00 92 972.2
20260504050536 42 208 0.0 0.0 0.00 0.00 0.00 90 972.3
20260504045016 43 208 0.0 0.0 0.00 0.00 0.00 90 972.3
20260504044509 43 208 0.0 0.0 0.00 0.00 0.00 90 972.2
20260504044004 43 208 0.0 0.0 0.00 0.00 0.00 90 972.2
20260504043458 43 208 0.0 0.0 0.00 0.00 0.00 89 972.2
20260504042952 43 208 0.0 0.0 0.00 0.00 0.00 89 972.3
20260504042445 43 208 0.0 0.0 0.00 0.00 0.00 89 972.2
20260504041939 43 208 0.0 0.0 0.00 0.00 0.00 89 972.0
20260504041434 43 208 0.0 0.0 0.00 0.00 0.00 88 972.0
20260504040928 44 208 0.0 0.0 0.00 0.00 0.00 87 972.0
20260504040422 44 208 0.0 0.0 0.00 0.00 0.00 87 971.9
20260504035916 44 208 0.0 0.0 0.00 0.00 0.00 86 971.8
20260504035410 44 208 0.0 0.0 0.00 0.00 0.00 86 971.9
20260504034904 44 208 0.0 0.0 0.00 0.00 0.00 86 972.0
20260504034357 45 208 0.0 0.0 0.00 0.00 0.00 85 972.0
20260504033852 45 208 0.0 0.0 0.00 0.00 0.00 84 972.0
20260504033346 45 208 0.0 0.0 0.00 0.00 0.00 84 972.1
20260504032840 46 208 0.0 0.0 0.00 0.00 0.00 83 972.1
20260504032333 46 208 0.0 0.0 0.00 0.00 0.00 82 972.0
20260504031827 46 208 0.0 0.0 0.00 0.00 0.00 82 972.1
20260504030816 47 208 0.0 0.0 0.00 0.00 0.00 81 972.2
20260504030310 47 208 0.0 0.0 0.00 0.00 0.00 80 972.2
20260504025804 47 208 0.0 0.0 0.00 0.00 0.00 79 972.3
20260504025258 48 208 0.0 0.0 0.00 0.00 0.00 79 972.2
20260504024751 48 208 0.0 0.0 0.00 0.00 0.00 79 972.2
20260504024247 48 208 0.0 0.0 0.00 0.00 0.00 79 972.2
20260504023740 48 208 0.0 0.0 0.00 0.00 0.00 78 972.2
20260504023234 48 208 0.0 0.0 0.00 0.00 0.00 78 972.3
20260504022728 49 208 0.0 0.0 0.00 0.00 0.00 77 972.2
20260504022222 49 208 0.0 0.0 0.00 0.00 0.00 76 972.1
20260504021210 49 208 0.0 0.0 0.00 0.00 0.00 76 972.0
20260504020705 49 208 0.0 0.0 0.00 0.00 0.00 75 972.0
20260504015706 50 208 0.0 0.0 0.00 0.00 0.00 74 971.8
20260504015208 50 208 0.0 0.0 0.00 0.00 0.00 73 971.7
20260504014706 51 208 0.0 0.0 0.00 0.00 0.00 72 971.6
20260504014206 51 208 0.0 0.0 0.00 0.00 0.00 71 971.4
20260504013707 51 208 0.0 0.0 0.00 0.00 0.00 70 971.4
20260504013203 52 208 0.0 0.0 0.00 0.00 0.00 69 971.2
20260504012704 52 208 0.0 0.0 0.00 0.00 0.00 68 971.3
20260504012204 53 208 0.0 0.0 0.00 0.00 0.00 68 971.2
20260504011205 54 208 0.0 0.0 0.00 0.00 0.00 67 971.1
20260504010704 55 208 0.0 0.0 0.00 0.00 0.00 65 971.0
20260504010202 55 208 0.0 0.0 0.00 0.00 0.00 63 971.0
20260504005201 56 208 0.0 0.0 0.00 0.00 0.00 61 971.0
20260504004702 56 208 0.0 0.0 0.00 0.00 0.00 61 971.0
20260504003658 58 208 0.0 0.0 0.00 0.00 0.00 59 970.9
20260504003155 58 208 0.0 0.0 0.00 0.00 0.00 58 970.8
20260504002656 59 208 0.0 0.0 0.00 0.00 0.00 56 970.7
20260504002154 59 208 0.0 0.0 0.00 0.00 0.00 55 970.7
20260504001153 60 208 0.0 0.0 0.00 0.00 0.00 54 970.6
20260504000653 61 208 0.0 0.0 0.00 0.00 0.00 53 970.6
20260504000154 62 209 0.0 0.0 0.00 0.00 0.00 52 970.6
20260503235649 63 209 0.0 0.0 0.00 0.00 0.00 50 970.6
20260503235148 64 209 0.0 0.0 0.00 0.00 0.00 48 970.6
20260503234146 65 209 0.0 0.0 0.00 0.00 0.00 46 970.5
20260503233145 66 209 0.0 3.0 0.00 0.00 0.00 43 970.4
20260503232646 66 175 1.0 4.0 0.00 0.00 0.00 43 970.3
20260503232141 67 176 1.0 4.0 0.00 0.00 0.00 40 970.4
20260503231641 67 251 0.0 3.0 0.00 0.00 0.00 40 970.4
20260503230142 67 241 1.0 6.0 0.00 0.00 0.00 39 970.5
20260503225642 67 208 2.0 8.0 0.00 0.00 0.00 39 970.4
20260503225142 67 157 3.0 9.0 0.00 0.00 0.00 38 970.4
20260503224641 67 170 2.0 9.0 0.00 0.00 0.00 38 970.5
20260503224142 67 254 2.0 8.0 0.00 0.00 0.00 38 970.5
20260503223638 68 220 1.0 8.0 0.00 0.00 0.00 37 970.5
20260503223137 68 290 1.0 5.0 0.00 0.00 0.00 37 970.5
20260503222638 67 269 1.0 8.0 0.00 0.00 0.00 38 970.6
20260503222138 67 267 2.0 8.0 0.00 0.00 0.00 39 970.6
20260503221637 67 289 2.0 9.0 0.00 0.00 0.00 36 970.6
20260503221138 68 250 1.0 9.0 0.00 0.00 0.00 37 970.7
20260503220638 67 218 2.0 6.0 0.00 0.00 0.00 38 970.7
20260503220137 67 188 2.0 7.0 0.00 0.00 0.00 36 970.7
20260503215638 68 192 1.0 7.0 0.00 0.00 0.00 37 970.8
20260503215138 68 316 1.0 6.0 0.00 0.00 0.00 36 970.8
20260503214637 68 309 1.0 5.0 0.00 0.00 0.00 37 970.8
20260503213637 67 134 3.0 8.0 0.00 0.00 0.00 37 971.0
20260503213138 67 159 3.0 10.0 0.00 0.00 0.00 36 971.0
20260503212639 68 221 2.0 10.0 0.00 0.00 0.00 36 971.1
20260503212137 68 279 1.0 5.0 0.00 0.00 0.00 38 971.2
20260503211635 68 200 1.0 7.0 0.00 0.00 0.00 37 971.2
20260503210629 67 245 3.0 12.0 0.00 0.00 0.00 38 971.4
20260503210123 67 252 2.0 9.0 0.00 0.00 0.00 39 971.3
20260503205616 67 188 3.0 9.0 0.00 0.00 0.00 36 971.4
20260503205111 67 176 2.0 9.0 0.00 0.00 0.00 37 971.4
20260503204605 67 231 2.0 8.0 0.00 0.00 0.00 37 971.4
20260503204059 67 321 2.0 8.0 0.00 0.00 0.00 37 971.5
20260503203553 68 262 1.0 5.0 0.00 0.00 0.00 39 971.6
20260503203053 67 318 1.0 5.0 0.00 0.00 0.00 40 971.6
20260503202551 67 248 2.0 9.0 0.00 0.00 0.00 36 971.7
20260503202052 66 314 3.0 9.0 0.00 0.00 0.00 39 971.8
20260503201555 66 310 3.0 10.0 0.00 0.00 0.00 37 971.8
20260503201050 66 319 3.0 10.0 0.00 0.00 0.00 37 971.9
20260503200550 66 321 3.0 9.0 0.00 0.00 0.00 40 972.0
20260503200049 66 327 3.0 11.0 0.00 0.00 0.00 37 972.1
20260503195547 66 280 2.0 11.0 0.00 0.00 0.00 38 972.2
20260503195047 66 286 1.0 7.0 0.00 0.00 0.00 45 972.2
20260503194547 65 129 3.0 10.0 0.00 0.00 0.00 44 972.2
20260503194045 65 286 4.0 11.0 0.00 0.00 0.00 39 972.3
20260503193545 65 173 4.0 11.0 0.00 0.00 0.00 41 972.3
20260503193045 65 244 4.0 12.0 0.00 0.00 0.00 39 972.4
20260503192045 65 16 3.0 14.0 0.00 0.00 0.00 41 972.4
20260503191549 65 209 3.0 14.0 0.00 0.00 0.00 40 972.4
20260503191047 65 182 2.0 9.0 0.00 0.00 0.00 39 972.6
20260503190542 65 344 3.0 9.0 0.00 0.00 0.00 38 972.6
20260503190036 64 157 3.0 8.0 0.00 0.00 0.00 40 972.7
20260503185529 64 317 4.0 11.0 0.00 0.00 0.00 37 972.7
20260503185024 64 287 4.0 11.0 0.00 0.00 0.00 38 972.8
20260503184518 64 239 3.0 8.0 0.00 0.00 0.00 38 972.9
20260503184013 64 189 3.0 8.0 0.00 0.00 0.00 41 972.9
20260503183506 64 329 1.0 8.0 0.00 0.00 0.00 39 973.0
20260503182959 64 301 1.0 7.0 0.00 0.00 0.00 38 973.1
20260503182453 64 313 2.0 7.0 0.00 0.00 0.00 37 973.3
20260503181947 64 294 2.0 6.0 0.00 0.00 0.00 38 973.3
20260503181441 64 355 2.0 6.0 0.00 0.00 0.00 39 973.4
20260503180936 64 342 3.0 8.0 0.00 0.00 0.00 40 973.3
20260503180430 63 180 3.0 10.0 0.00 0.00 0.00 38 973.4
20260503175925 62 5 3.0 10.0 0.00 0.00 0.00 41 973.5
20260503175418 62 239 3.0 9.0 0.00 0.00 0.00 38 973.6
20260503174912 62 198 2.0 8.0 0.00 0.00 0.00 38 973.6
20260503174406 62 242 1.0 6.0 0.00 0.00 0.00 40 973.7
20260503173859 62 248 1.0 5.0 0.00 0.00 0.00 41 973.8
20260503172847 62 100 3.0 13.0 0.00 0.00 0.00 41 973.9
20260503172341 62 211 3.0 13.0 0.00 0.00 0.00 40 974.0
20260503171835 62 294 1.0 7.0 0.00 0.00 0.00 40 974.0
20260503171330 61 138 2.0 6.0 0.00 0.00 0.00 42 974.1
20260503170823 61 159 2.0 9.0 0.00 0.00 0.00 42 974.1